METEOR 2-11 DEB, 60008

Orbit data source: Space-Track

METEOR 2-11 DEB, 60008 is space debris in LEO originally from a launch on Thu, 05 Jul 1984 UTC launched from the Plesetsk Missile And Space Complex (PKMTR). Debris objects in space refer to the collection of defunct objects orbiting the Earth. Examples of debris include non-operational satellites, rocket bodies, and fragments generated from explosions, collisions, or faulty payload assembly.

Loading next visibility...
Identifier
60008, 1984-072AD
Orbit
LEO
Last TLE update
1 day ago
Origin
Manufacturer
Unknown
Mission
Spacecraft
Bus & Motor
Unknown
Mass
Unknown
Launch date (UTC)
1984-07-05 (41 years ago)
Launch vehicle
Unknown
Launch site
Plesetsk Missile And Space Complex (PKMTR)
Object type
Payload
Rocket body
Debris
Shape & HBR
Unknown
Radar Cross Section
Small (<0.1 m²)

Expand to show TLE details & history

TLE from 1 day ago
0 METEOR 2-11 DEB
1 60008U 84072AD  25128.19766698  .00002875  00000-0  17491-2 0  9991
2 60008  82.5078 298.1064 0031757 302.5082  57.3022 14.05645288577224
Epoch: 2025-05-08T04:44Z
Definitive object data (Epoch: 2025-05-08T04:44:38.427Z)
Latitude
Longitude
0.67467°
Altitude
864.85 km
Speed
7.426 km/s
True Right ascension
19h 52m 25s
True Declination
0° 00' 00"
Sunlit
Object was in daylight at TLE epoch
Visualization TLE readout
Latitude
-31.69882°
Longitude
-4.83782°
Altitude
865.982 km
Speed
7.429 km/s
Apparent Right ascension
22h 23m 23s
Apparent Declination
-48° 25' 56"
Sunlit
Object is in partial shadow
Visualization observer readout
Local Sidereal Time
14:21:56
Azimuth
122.064° SE
Elevation
-47.502°
Doppler factor
1
Orbital elements
Apogee altitude
894.458 km
Perigee altitude
848.413 km
Semi-major axis
7,249.573 km
Eccentricity
0.0031757
Inclination
82.5078°
RAAN
298.1064°
Arg. of periapsis
302.5082°
True anomaly
57.6091°
Mean anomaly
57.3022°
Eccentric anomaly
57.45558°
Mean motion
3.51621 °/min
BSTAR
0.0017491
Orbital period
102.38 mins
Loading maneuver chart data...
Loading SW <> Apogee altitude chart data...
Loading historical data...
Loading historical data...
Loading historical data...
Loading historical data...
Loading historical data...
Loading historical data...
Loading historical data...

METEOR 2-11 DEB Visibility forecast

Observer location: undefined°, undefined°

Span
Click to sort rows by Start time (UTC) header in descending order
Start Az.
Max El. time (UTC)
Max El. Az.
Max El.
End time (UTC)
End Az.
10 mins2025-05-09 11:36:08.770Z168.562° S2025-05-09 11:41:08.770Z87.171° E40.133°2025-05-09 11:46:08.770Z17.037° NNE
6 mins2025-05-09 13:22:08.770Z259.347° W2025-05-09 13:25:08.770Z296.682° NW17.643°2025-05-09 13:28:08.770Z330.251° NNW
9 mins2025-05-09 22:20:08.770Z16.684° NNE2025-05-09 22:24:08.770Z76.753° E31.016°2025-05-09 22:29:08.770Z141.072° SSE
7 mins2025-05-10 00:04:08.770Z316.48° NNW2025-05-10 00:07:08.770Z273.183° WNW25.667°2025-05-10 00:11:08.770Z220.945° SW
|